Location: Newark
(6.1731°S, 35.7419°E)
Time: 03:29:14
(UTC+00:00)

Altair - Pass Details

Date: 23 February 2020
Orbit: 1501 x 1682 km, 47.2° (Epoch: 04 April)

Event Time Altitude Azimuth Distance (km) Brightness Sun altitude
Rises 17:01:37 0° 201° (SSW) 4,679 10.5 -16.3°
Reaches altitude 10° 17:05:24 10° 189° (S) 3,677 9.8 -17.2°
Maximum altitude 17:12:45 26° 135° (SE) 2,608 8.4 -19.0°
Enters shadow 17:15:44 22° 108° (ESE) 2,812 8.4 -19.7°
